| time (UTC) | temp F | wind direction | speed MPH | gust MPH | rain 1hr in | rain 24hr in | rain mn in | humidity % | barometer mb |
| 20260507060004 | 47 | 311 | 2.0 | 4.0 | 0.00 | 0.70 | 0.08 | 99 | 1005.1 |
| 20260507055404 | 47 | 286 | 2.0 | 5.0 | 0.00 | 0.70 | 0.08 | 99 | 1005.1 |
| 20260507054505 | 47 | 288 | 2.0 | 5.0 | 0.02 | 0.70 | 0.08 | 99 | 1005.1 |
| 20260507053603 | 47 | 311 | 2.0 | 5.0 | 0.02 | 0.70 | 0.08 | 99 | 1005.1 |
| 20260507052705 | 47 | 326 | 3.0 | 6.0 | 0.02 | 0.70 | 0.08 | 99 | 1005.1 |
| 20260507051804 | 47 | 319 | 2.0 | 6.0 | 0.02 | 0.70 | 0.08 | 99 | 1005.1 |
| 20260507050903 | 48 | 319 | 2.0 | 7.0 | 0.08 | 0.70 | 0.08 | 99 | 1005.1 |
| 20260507050004 | 48 | 312 | 3.0 | 9.0 | 0.08 | 0.70 | 0.08 | 99 | 1005.1 |
| 20260507045404 | 48 | 311 | 2.0 | 9.0 | 0.08 | 0.70 | 0.08 | 99 | 1005.1 |
| 20260507044525 | 48 | 307 | 3.0 | 6.0 | 0.07 | 0.68 | 0.07 | 99 | 1005.1 |
| 20260507043605 | 49 | 311 | 3.0 | 9.0 | 0.06 | 0.68 | 0.06 | 99 | 1005.1 |
| 20260507042704 | 49 | 307 | 3.0 | 7.0 | 0.06 | 0.68 | 0.06 | 99 | 1005.1 |
| 20260507041825 | 50 | 312 | 3.0 | 8.0 | 0.07 | 0.68 | 0.06 | 99 | 1005.1 |
| 20260507040904 | 51 | 295 | 3.0 | 6.0 | 0.04 | 0.62 | 0.00 | 99 | 1005.1 |
| 20260507040004 | 51 | 302 | 3.0 | 6.0 | 0.04 | 0.62 | 0.00 | 99 | 1005.1 |
| 20260507035403 | 51 | 316 | 3.0 | 8.0 | 0.04 | 0.62 | 0.62 | 99 | 1005.1 |
| 20260507034504 | 52 | 327 | 3.0 | 8.0 | 0.04 | 0.62 | 0.62 | 99 | 1005.1 |
| 20260507033626 | 52 | 312 | 2.0 | 5.0 | 0.04 | 0.62 | 0.62 | 99 | 1005.1 |
| 20260507032705 | 52 | 308 | 3.0 | 8.0 | 0.04 | 0.62 | 0.61 | 99 | 1005.1 |
| 20260507031803 | 53 | 293 | 3.0 | 6.0 | 0.04 | 0.61 | 0.61 | 99 | 1005.1 |
| 20260507030903 | 54 | 312 | 3.0 | 6.0 | 0.02 | 0.58 | 0.59 | 99 | 1005.1 |
| 20260507030004 | 54 | 280 | 1.0 | 7.0 | 0.02 | 0.58 | 0.58 | 99 | 1005.1 |
| 20260507025425 | 54 | 265 | 1.0 | 4.0 | 0.01 | 0.58 | 0.58 | 99 | 1005.1 |
| 20260507024525 | 54 | 201 | 1.0 | 2.0 | 0.00 | 0.57 | 0.57 | 99 | 1005.1 |
| 20260507023625 | 55 | 273 | 1.0 | 3.0 | 0.00 | 0.57 | 0.57 | 99 | 1005.1 |
| 20260507022705 | 54 | 203 | 2.0 | 5.0 | 0.00 | 0.57 | 0.57 | 99 | 1005.1 |
| 20260507021805 | 54 | 165 | 3.0 | 6.0 | 0.00 | 0.57 | 0.57 | 99 | 1005.1 |
| 20260507020925 | 54 | 154 | 2.0 | 6.0 | 0.00 | 0.57 | 0.57 | 99 | 1005.1 |
| 20260507020004 | 54 | 307 | 1.0 | 3.0 | 0.00 | 0.57 | 0.57 | 99 | 1005.1 |
| 20260507015403 | 54 | 203 | 3.0 | 9.0 | 0.00 | 0.57 | 0.57 | 99 | 1005.1 |
| 20260507014504 | 54 | 169 | 7.0 | 12.0 | 0.00 | 0.57 | 0.57 | 99 | 1005.1 |
| 20260507013624 | 54 | 177 | 5.0 | 12.0 | 0.00 | 0.57 | 0.57 | 99 | 1005.1 |
| 20260507012704 | 54 | 166 | 6.0 | 12.0 | 0.00 | 0.57 | 0.57 | 99 | 1005.1 |
| 20260507011804 | 54 | 168 | 9.0 | 13.0 | 0.00 | 0.57 | 0.57 | 99 | 1005.1 |
| 20260507010903 | 54 | 164 | 8.0 | 16.0 | 0.00 | 0.57 | 0.57 | 99 | 1005.1 |
| 20260507010005 | 54 | 170 | 6.0 | 16.0 | 0.00 | 0.62 | 0.57 | 99 | 1005.1 |
| 20260507005404 | 54 | 167 | 7.0 | 14.0 | 0.00 | 0.62 | 0.57 | 99 | 1005.1 |
| 20260507004504 | 54 | 159 | 8.0 | 14.0 | 0.00 | 0.62 | 0.57 | 99 | 1005.1 |
| 20260507003604 | 55 | 165 | 8.0 | 18.0 | 0.00 | 0.62 | 0.57 | 99 | 1005.1 |
| 20260507002724 | 55 | 166 | 10.0 | 18.0 | 0.00 | 0.62 | 0.57 | 99 | 1005.1 |
| 20260507001803 | 55 | 165 | 8.0 | 16.0 | 0.00 | 0.62 | 0.57 | 99 | 1005.1 |
| 20260507000904 | 55 | 162 | 8.0 | 15.0 | 0.00 | 0.62 | 0.57 | 99 | 1005.1 |
| 20260507000004 | 55 | 157 | 8.0 | 13.0 | 0.00 | 0.62 | 0.57 | 99 | 1005.1 |
| 20260506235424 | 55 | 158 | 8.0 | 14.0 | 0.00 | 0.62 | 0.57 | 99 | 1005.1 |
| 20260506234504 | 55 | 164 | 7.0 | 14.0 | 0.00 | 0.62 | 0.57 | 99 | 1005.1 |
| 20260506233605 | 55 | 164 | 8.0 | 14.0 | 0.00 | 0.62 | 0.57 | 99 | 1005.1 |
| 20260506232703 | 55 | 153 | 7.0 | 16.0 | 0.00 | 0.66 | 0.57 | 99 | 1005.1 |
| 20260506231803 | 55 | 150 | 7.0 | 11.0 | 0.00 | 0.66 | 0.57 | 99 | 1005.1 |
| 20260506230924 | 55 | 158 | 7.0 | 12.0 | 0.01 | 0.66 | 0.57 | 99 | 1005.1 |
| 20260506230025 | 55 | 158 | 6.0 | 12.0 | 0.02 | 0.66 | 0.57 | 99 | 1005.1 |
| 20260506225405 | 55 | 162 | 6.0 | 11.0 | 0.02 | 0.68 | 0.57 | 99 | 1005.1 |
| 20260506224503 | 55 | 151 | 5.0 | 11.0 | 0.02 | 0.75 | 0.57 | 99 | 1005.1 |
| 20260506223603 | 55 | 157 | 5.0 | 13.0 | 0.04 | 0.76 | 0.57 | 99 | 1005.1 |
| 20260506222703 | 55 | 158 | 5.0 | 12.0 | 0.04 | 0.75 | 0.56 | 99 | 1005.1 |
| 20260506221803 | 55 | 157 | 5.0 | 10.0 | 0.06 | 0.75 | 0.56 | 99 | 1005.1 |
| 20260506220903 | 55 | 155 | 4.0 | 8.0 | 0.10 | 0.74 | 0.56 | 99 | 1005.1 |
| 20260506220003 | 55 | 157 | 3.0 | 7.0 | 0.09 | 0.74 | 0.55 | 99 | 1005.1 |
| 20260506215405 | 55 | 134 | 4.0 | 8.0 | 0.16 | 0.74 | 0.55 | 99 | 1005.1 |
| 20260506214505 | 55 | 151 | 3.0 | 8.0 | 0.18 | 0.74 | 0.55 | 99 | 1005.1 |
| 20260506213603 | 55 | 149 | 3.0 | 6.0 | 0.18 | 0.72 | 0.53 | 99 | 1005.1 |
| 20260506212703 | 55 | 147 | 4.0 | 7.0 | 0.20 | 0.70 | 0.52 | 99 | 1005.1 |
| 20260506211804 | 55 | 153 | 4.0 | 7.0 | 0.19 | 0.69 | 0.50 | 99 | 1005.1 |
| 20260506210904 | 55 | 163 | 4.0 | 8.0 | 0.17 | 0.66 | 0.47 | 99 | 1005.1 |
| 20260506210024 | 55 | 155 | 4.0 | 10.0 | 0.19 | 0.65 | 0.46 | 99 | 1005.1 |
| 20260506205403 | 55 | 161 | 5.0 | 10.0 | 0.15 | 0.58 | 0.39 | 99 | 1005.1 |
| 20260506204524 | 55 | 158 | 6.0 | 10.0 | 0.12 | 0.56 | 0.37 | 99 | 1005.1 |
| 20260506203603 | 55 | 155 | 6.0 | 10.0 | 0.11 | 0.54 | 0.35 | 99 | 1005.1 |
| 20260506202703 | 55 | 156 | 6.0 | 10.0 | 0.11 | 0.52 | 0.32 | 99 | 1005.1 |
| 20260506201824 | 55 | 157 | 6.0 | 9.0 | 0.10 | 0.50 | 0.31 | 99 | 1005.1 |
| 20260506200903 | 55 | 161 | 5.0 | 11.0 | 0.10 | 0.49 | 0.29 | 99 | 1005.1 |
| 20260506200005 | 55 | 173 | 5.0 | 11.0 | 0.10 | 0.47 | 0.27 | 99 | 1005.1 |
| 20260506195403 | 55 | 163 | 5.0 | 10.0 | 0.08 | 0.44 | 0.24 | 99 | 1005.1 |
| 20260506194503 | 55 | 166 | 6.0 | 13.0 | 0.13 | 0.44 | 0.24 | 99 | 1005.1 |
| 20260506193603 | 55 | 160 | 6.0 | 11.0 | 0.18 | 0.44 | 0.24 | 99 | 1005.1 |
| 20260506192704 | 56 | 164 | 6.0 | 12.0 | 0.18 | 0.42 | 0.21 | 99 | 1005.1 |
| 20260506191803 | 56 | 160 | 7.0 | 14.0 | 0.18 | 0.40 | 0.20 | 99 | 1005.1 |
| 20260506190924 | 56 | 152 | 6.0 | 11.0 | 0.18 | 0.39 | 0.19 | 99 | 1005.1 |
| 20260506190004 | 56 | 135 | 4.0 | 8.0 | 0.18 | 0.38 | 0.18 | 99 | 1005.1 |
| 20260506185403 | 56 | 130 | 3.0 | 8.0 | 0.16 | 0.37 | 0.17 | 100 | 1005.1 |
| 20260506184503 | 56 | 199 | 2.0 | 5.0 | 0.11 | 0.32 | 0.11 | 98 | 1005.1 |
| 20260506183604 | 57 | 175 | 4.0 | 8.0 | 0.05 | 0.26 | 0.05 | 97 | 1005.1 |
| 20260506182703 | 57 | 153 | 4.0 | 10.0 | 0.04 | 0.24 | 0.04 | 95 | 1005.1 |
| 20260506181824 | 58 | 149 | 4.0 | 7.0 | 0.02 | 0.23 | 0.03 | 95 | 1005.1 |
| 20260506180924 | 58 | 129 | 4.0 | 9.0 | 0.02 | 0.22 | 0.01 | 94 | 1005.1 |
| 20260506180004 | 59 | 144 | 4.0 | 8.0 | 0.00 | 0.22 | 0.01 | 91 | 1005.1 |
| 20260506175403 | 59 | 148 | 6.0 | 12.0 | 0.00 | 0.22 | 0.00 | 90 | 1005.1 |
| 20260506174503 | 60 | 125 | 5.0 | 12.0 | 0.00 | 0.21 | 0.00 | 89 | 1005.1 |
| 20260506173603 | 60 | 120 | 4.0 | 9.0 | 0.00 | 0.21 | 0.00 | 90 | 1005.1 |
| 20260506172724 | 60 | 122 | 5.0 | 10.0 | 0.00 | 0.21 | 0.00 | 90 | 1005.1 |
| 20260506171803 | 60 | 136 | 6.0 | 12.0 | 0.00 | 0.21 | 0.00 | 89 | 1005.1 |
| 20260506170903 | 60 | 142 | 5.0 | 11.0 | 0.00 | 0.21 | 0.00 | 88 | 1005.1 |
| 20260506170003 | 60 | 127 | 5.0 | 12.0 | 0.00 | 0.21 | 0.00 | 88 | 1005.1 |
| 20260506165404 | 60 | 137 | 5.0 | 12.0 | 0.00 | 0.21 | 0.00 | 88 | 1005.1 |
| 20260506164503 | 60 | 128 | 5.0 | 12.0 | 0.00 | 0.21 | 0.00 | 88 | 1005.1 |
| 20260506163603 | 60 | 143 | 8.0 | 13.0 | 0.00 | 0.21 | 0.00 | 88 | 1005.1 |
| 20260506162703 | 60 | 129 | 6.0 | 13.0 | 0.00 | 0.21 | 0.00 | 87 | 1005.1 |
| 20260506161803 | 60 | 146 | 7.0 | 13.0 | 0.00 | 0.21 | 0.00 | 88 | 1005.1 |
| 20260506160904 | 60 | 140 | 5.0 | 9.0 | 0.00 | 0.21 | 0.00 | 88 | 1005.1 |
| 20260506160026 | 60 | 142 | 6.0 | 11.0 | 0.00 | 0.21 | 0.00 | 88 | 1005.1 |
| 20260506155403 | 60 | 153 | 5.0 | 11.0 | 0.00 | 0.21 | 0.00 | 88 | 1005.1 |
| 20260506154524 | 60 | 131 | 6.0 | 12.0 | 0.00 | 0.21 | 0.00 | 88 | 1005.1 |
| 20260506153603 | 60 | 140 | 6.0 | 10.0 | 0.00 | 0.21 | 0.00 | 88 | 1005.1 |
| 20260506152704 | 59 | 157 | 7.0 | 11.0 | 0.00 | 0.21 | 0.00 | 88 | 1005.1 |
| 20260506151803 | 59 | 143 | 7.0 | 11.0 | 0.00 | 0.21 | 0.00 | 88 | 1005.1 |
| 20260506150903 | 59 | 150 | 6.0 | 10.0 | 0.00 | 0.21 | 0.00 | 87 | 1005.1 |
| 20260506150024 | 59 | 153 | 5.0 | 9.0 | 0.00 | 0.21 | 0.00 | 88 | 1005.1 |
| 20260506145403 | 58 | 160 | 5.0 | 10.0 | 0.00 | 0.21 | 0.00 | 89 | 1005.1 |
| 20260506144503 | 58 | 156 | 5.0 | 10.0 | 0.00 | 0.21 | 0.00 | 89 | 1005.1 |
| 20260506143603 | 58 | 154 | 4.0 | 7.0 | 0.00 | 0.21 | 0.00 | 88 | 1005.1 |
| 20260506142724 | 57 | 146 | 3.0 | 8.0 | 0.00 | 0.21 | 0.00 | 88 | 1005.1 |
| 20260506141803 | 57 | 138 | 4.0 | 8.0 | 0.00 | 0.21 | 0.00 | 89 | 1005.1 |
| 20260506140903 | 57 | 134 | 3.0 | 8.0 | 0.00 | 0.21 | 0.00 | 89 | 1005.1 |
| 20260506140003 | 57 | 130 | 3.0 | 7.0 | 0.00 | 0.21 | 0.00 | 90 | 1005.1 |
| 20260506135403 | 57 | 164 | 3.0 | 7.0 | 0.00 | 0.21 | 0.00 | 90 | 1005.1 |
| 20260506134503 | 56 | 168 | 3.0 | 6.0 | 0.00 | 0.21 | 0.00 | 90 | 1005.1 |
| 20260506133604 | 56 | 140 | 3.0 | 6.0 | 0.00 | 0.21 | 0.00 | 89 | 1005.1 |
| 20260506132703 | 57 | 125 | 3.0 | 5.0 | 0.00 | 0.21 | 0.00 | 90 | 1005.1 |
| 20260506131804 | 57 | 111 | 2.0 | 5.0 | 0.00 | 0.21 | 0.00 | 89 | 1005.1 |
| 20260506130905 | 56 | 92 | 1.0 | 4.0 | 0.00 | 0.21 | 0.00 | 90 | 1005.1 |
| 20260506130004 | 56 | 83 | 1.0 | 4.0 | 0.00 | 0.21 | 0.00 | 90 | 1005.1 |
| 20260506125403 | 56 | 84 | 1.0 | 4.0 | 0.00 | 0.21 | 0.00 | 90 | 1005.1 |
| 20260506124503 | 55 | 119 | 2.0 | 4.0 | 0.00 | 0.21 | 0.00 | 90 | 1005.1 |
| 20260506123603 | 55 | 160 | 2.0 | 4.0 | 0.00 | 0.21 | 0.00 | 91 | 1005.1 |
| 20260506122724 | 54 | 87 | 2.0 | 5.0 | 0.00 | 0.21 | 0.00 | 92 | 1005.1 |
| 20260506121803 | 54 | 96 | 2.0 | 6.0 | 0.00 | 0.21 | 0.00 | 92 | 1005.1 |
| 20260506120904 | 54 | 100 | 3.0 | 6.0 | 0.00 | 0.21 | 0.00 | 92 | 1005.1 |
| 20260506120004 | 53 | 103 | 3.0 | 7.0 | 0.00 | 0.21 | 0.00 | 93 | 1005.1 |
| 20260506115404 | 53 | 116 | 3.0 | 5.0 | 0.00 | 0.21 | 0.00 | 93 | 1005.1 |
| 20260506114503 | 53 | 153 | 3.0 | 6.0 | 0.00 | 0.21 | 0.00 | 93 | 1005.1 |
| 20260506113603 | 53 | 132 | 3.0 | 7.0 | 0.00 | 0.21 | 0.00 | 93 | 1005.1 |
| 20260506112703 | 53 | 87 | 2.0 | 6.0 | 0.00 | 0.21 | 0.00 | 93 | 1005.1 |
| 20260506111803 | 53 | 106 | 3.0 | 6.0 | 0.00 | 0.21 | 0.00 | 93 | 1005.1 |
| 20260506110924 | 53 | 124 | 2.0 | 4.0 | 0.00 | 0.21 | 0.00 | 94 | 1005.1 |
| 20260506110004 | 53 | 111 | 1.0 | 4.0 | 0.00 | 0.21 | 0.00 | 94 | 1005.1 |
| 20260506105425 | 53 | 80 | 0.0 | 3.0 | 0.00 | 0.21 | 0.00 | 94 | 1005.1 |
| 20260506104504 | 53 | 106 | 2.0 | 5.0 | 0.00 | 0.21 | 0.00 | 94 | 1005.1 |
| 20260506103603 | 53 | 107 | 3.0 | 7.0 | 0.00 | 0.21 | 0.00 | 93 | 1005.1 |
| 20260506102704 | 53 | 151 | 2.0 | 5.0 | 0.00 | 0.21 | 0.00 | 93 | 1005.1 |
| 20260506101824 | 53 | 121 | 1.0 | 4.0 | 0.00 | 0.21 | 0.00 | 93 | 1005.1 |
| 20260506100903 | 53 | 89 | 2.0 | 6.0 | 0.00 | 0.21 | 0.00 | 93 | 1005.1 |
| 20260506100003 | 53 | 98 | 1.0 | 5.0 | 0.00 | 0.21 | 0.00 | 92 | 1005.1 |
| 20260506095403 | 53 | 114 | 2.0 | 5.0 | 0.00 | 0.21 | 0.00 | 92 | 1005.1 |
| 20260506094503 | 53 | 122 | 2.0 | 4.0 | 0.00 | 0.21 | 0.00 | 93 | 1005.1 |
| 20260506093603 | 52 | 192 | 1.0 | 2.0 | 0.00 | 0.21 | 0.00 | 95 | 1005.1 |
| 20260506092703 | 53 | 261 | 1.0 | 3.0 | 0.00 | 0.21 | 0.00 | 94 | 1005.1 |
| 20260506091825 | 53 | 156 | 1.0 | 3.0 | 0.00 | 0.21 | 0.00 | 92 | 1005.1 |
| 20260506090924 | 53 | 204 | 2.0 | 4.0 | 0.00 | 0.21 | 0.00 | 93 | 1005.1 |
| 20260506090004 | 53 | 174 | 2.0 | 4.0 | 0.00 | 0.21 | 0.00 | 94 | 1005.1 |
| 20260506085403 | 52 | 138 | 2.0 | 5.0 | 0.00 | 0.21 | 0.00 | 95 | 1005.1 |
| 20260506084503 | 52 | 98 | 2.0 | 5.0 | 0.00 | 0.21 | 0.00 | 95 | 1005.1 |
| 20260506083603 | 52 | 93 | 1.0 | 5.0 | 0.00 | 0.21 | 0.00 | 95 | 1005.1 |
| 20260506082703 | 52 | 326 | 1.0 | 4.0 | 0.00 | 0.21 | 0.00 | 95 | 1005.1 |
| 20260506081803 | 52 | 117 | 2.0 | 4.0 | 0.00 | 0.21 | 0.00 | 95 | 1005.1 |
| 20260506080903 | 52 | 51 | 1.0 | 3.0 | 0.00 | 0.21 | 0.00 | 95 | 1005.1 |
| 20260506072703 | 53 | 141 | 1.0 | 3.0 | 0.00 | 0.21 | 0.00 | 95 | 1005.1 |
| 20260506071803 | 53 | 322 | 1.0 | 2.0 | 0.00 | 0.21 | 0.00 | 94 | 1005.1 |
| 20260506070903 | 53 | 208 | 0.0 | 3.0 | 0.00 | 0.21 | 0.00 | 93 | 1005.1 |
| 20260506061824 | 54 | 159 | 4.0 | 7.0 | 0.00 | 0.21 | 0.00 | 90 | 1005.1 |
| 20260506060903 | 54 | 167 | 3.0 | 10.0 | 0.00 | 0.21 | 0.00 | 91 | 1005.1 |